Snowfall_Accumulation
1.5 1.7 1.8 1.8 1.7 1.1 1.1 1.2 0.9 0.9 0.6 0.4 0.5 0.6 0.3 0.3 0.3 0.3 0.5 0.5 0.6 0.7 0.6 0.5 0.5 0.5 0.5 0.5 0.7 0.7 0.9 1.1 1.3 0.3 0.3 0.3 0.4 0.2 0.1 0.1 0.1 0.1 0.1
1.6 1.7 1.7 1.9 1.6 1.7 1.3 1.2 1.1 0.9 0.9 0.8 0.5 0.6 0.4 0.4 0.5 0.4 0.5 0.5 0.6 0.6 0.6 0.6 0.6 0.6 0.6 0.6 0.6 0.9 0.8 0.9 1.7 1.6 0.5 0.5 0.5 0.6 0.3 0.2 0.1 0.1 0.1
1.8 1.8 1.7 1.9 1.6 1.6 1.6 1.4 1.2 1.2 1.2 1.0 0.9 1.0 0.7 0.6 0.5 0.6 0.9 0.8 0.7 0.4 0.5 0.6 0.6 0.6 0.8 0.7 1.1 0.9 0.9 0.9 1.3 1.8 1.1 0.5 0.5 0.4 0.6 0.2 0.2 0.1 0.1
1.8 1.6 1.7 1.6 1.6 1.4 1.4 1.4 1.5 1.3 1.3 1.4 1.2 1.0 1.0 0.9 1.0 0.9 1.0 1.0 0.7 0.9 0.8 0.8 1.1 1.1 1.2 1.1 1.3 1.3 1.5 1.7 1.8 2.2 2.2 1.5 1.4 0.8 0.9 1.0 0.4 0.3 0.2
2.5 2.0 1.5 1.2 1.4 1.5 1.6 1.5 1.4 1.4 1.2 1.4 1.6 1.4 1.2 1.2 1.3 1.5 1.8 1.5 1.4 1.3 1.0 0.8 0.9 0.7 0.9 1.2 1.7 2.1 2.6 3.2 3.6 4.0 3.4 2.6 1.6 1.7 1.6 1.2 1.5 0.7 0.5
2.7 2.7 2.0 1.3 1.3 1.2 1.5 1.6 1.5 1.6 1.5 1.6 1.7 2.0 2.1 1.8 1.3 1.9 2.1 1.9 1.6 1.4 1.2 1.2 0.8 0.9 0.9 1.1 1.6 2.0 3.3 5.0 6.0 6.0 5.3 3.9 2.3 1.8 1.7 2.0 2.5 3.5 2.4
2.7 2.8 2.4 2.4 1.9 1.3 1.7 1.8 2.1 1.8 1.9 2.0 2.0 2.2 2.0 1.5 1.6 2.1 2.2 2.3 2.2 1.8 1.8 1.5 1.3 1.1 1.1 1.0 1.2 1.8 2.3 3.0 4.0 5.0 5.1 3.3 2.3 2.2 3.5 5.0 4.8 5.2 4.2
3.3 2.8 2.7 2.7 2.5 2.5 2.4 2.5 2.1 2.2 2.1 2.1 2.3 2.1 2.1 1.6 1.7 1.7 2.0 2.3 2.4 2.2 1.9 1.6 1.7 1.4 1.2 1.7 2.7 3.2 2.2 1.6 1.7 1.9 2.4 2.4 2.4 2.3 4.4 7.0 6.9 5.4 3.0
3.6 3.7 3.3 3.3 3.2 2.7 3.0 2.9 2.6 2.5 2.5 2.4 2.8 2.4 2.6 2.5 1.7 1.9 2.4 2.8 2.6 2.1 1.8 1.6 1.9 1.8 1.8 3.2 5.0 4.7 2.7 1.4 0.9 1.4 2.0 2.1 1.9 2.1 2.8 6.4 8.3 8.8 6.6
4.5 4.0 3.8 3.5 3.7 3.4 3.1 3.3 3.3 3.4 3.6 3.4 3.4 3.0 2.8 3.0 2.5 1.8 2.6 3.2 3.3 2.7 2.0 1.8 1.8 1.9 2.5 4.1 5.1 5.1 4.0 2.1 2.2 1.8 1.6 1.2 1.2 1.3 1.8 4.6 9.5 14.6 11.9
4.6 3.6 3.5 3.5 4.2 4.2 3.5 3.4 4.3 4.1 4.0 3.7 3.6 3.4 3.2 2.8 2.6 2.4 2.4 3.6 4.4 4.1 3.0 2.4 1.5 2.3 3.5 4.1 4.2 3.8 3.9 4.2 3.7 2.8 2.2 1.9 1.8 1.8 1.6 2.7 5.6 13.4 18.0
4.9 4.4 4.4 4.5 4.5 4.0 3.9 4.2 4.5 4.6 4.7 4.2 3.9 3.5 3.1 2.8 2.8 3.1 3.1 3.7 4.4 5.0 4.0 2.5 2.2 3.1 3.4 3.3 3.1 3.3 3.6 3.7 3.7 3.9 3.5 3.2 3.4 3.4 3.3 3.5 4.6 7.1 10.5
5.3 4.9 4.7 5.0 4.6 4.9 4.3 4.6 4.3 4.2 4.2 4.2 4.1 4.0 3.3 2.8 2.7 2.8 3.4 4.3 4.2 4.8 3.4 3.6 3.5 3.2 3.2 3.0 2.6 3.2 3.6 4.2 5.2 6.3 5.4 4.2 4.0 4.5 4.5 5.4 5.8 6.0 6.6
6.9 6.5 6.0 5.4 5.9 5.3 5.2 5.0 5.0 5.2 5.2 4.9 4.3 4.3 4.0 3.2 3.4 3.5 4.0 4.1 4.2 4.7 4.5 3.7 3.3 2.7 3.0 3.3 3.3 3.7 3.8 4.7 6.9 8.4 7.4 5.7 5.2 6.0 7.8 8.9 10.7 11.1 13.2
6.6 6.7 6.4 6.1 6.5 6.5 6.1 5.9 6.1 6.6 6.7 7.6 7.4 6.1 6.4 5.8 5.3 6.2 6.8 6.7 6.4 6.1 5.5 4.7 4.5 4.4 4.5 4.6 4.3 4.4 4.7 5.2 6.9 7.9 8.7 9.3 9.0 10.0 11.6 13.4 14.9 15.1 15.1
6.1 5.7 6.2 6.5 6.0 6.1 6.4 6.5 5.9 5.9 5.9 5.7 5.9 6.6 6.7 6.2 6.1 6.5 6.6 7.1 7.0 6.5 6.7 7.0 5.9 5.4 5.6 5.4 5.8 5.8 5.5 6.6 8.1 9.7 11.1 12.2 13.9 14.6 14.8 14.3 15.2 16.2 15.1
6.0 6.1 6.2 5.9 6.3 6.5 6.5 6.6 6.5 5.8 4.5 4.7 4.7 5.1 5.7 5.6 5.9 5.9 6.2 6.4 6.0 6.0 7.9 7.5 6.6 6.6 6.7 7.0 7.2 8.1 7.8 7.8 9.5 12.1 14.4 16.1 16.8 17.2 17.1 16.4 15.0 14.1 12.5
4.8 5.2 5.6 5.7 5.8 6.1 6.2 6.4 6.8 6.8 5.9 5.3 4.9 5.1 4.9 5.1 5.3 5.2 5.4 5.4 6.0 5.8 7.6 8.8 8.7 8.2 8.4 8.9 9.6 10.4 11.1 11.4 12.4 15.0 16.5 17.7 18.9 19.6 18.2 15.7 13.6 12.9 12.0
4.1 4.6 4.8 5.2 5.4 5.8 6.1 6.2 6.4 6.3 6.2 6.2 6.0 5.9 5.4 4.5 4.4 4.9 4.8 6.3 7.3 7.8 8.8 9.4 9.5 9.5 9.1 10.3 11.2 12.8 14.3 15.9 16.3 18.3 18.9 19.3 19.8 20.2 17.4 13.5 11.9 10.5 11.2
4.0 4.4 5.0 5.0 4.9 5.2 5.5 6.0 6.4 6.6 6.7 6.4 6.5 7.0 6.6 5.4 6.5 6.2 5.8 6.5 7.2 7.7 7.9 8.4 8.8 9.2 9.7 11.2 12.5 14.1 15.7 16.6 17.8 18.8 19.7 19.2 18.0 17.0 15.2 12.0 11.0 11.3 10.8
4.1 3.8 4.2 4.3 4.6 4.7 5.0 5.7 6.0 6.2 6.3 6.2 6.8 7.1 7.4 8.3 7.8 7.0 7.3 7.0 7.5 7.7 7.9 8.6 9.6 9.7 10.6 12.0 13.9 15.2 15.7 16.7 18.2 19.6 19.5 18.1 16.1 13.9 11.3 10.8 10.9 11.0 11.1
4.5 4.4 4.5 4.6 4.8 5.1 5.3 5.4 5.7 6.0 6.0 5.9 5.9 6.0 5.9 6.7 6.6 6.9 7.4 7.0 7.0 7.3 7.7 8.6 9.1 9.4 11.9 15.3 17.6 18.8 17.8 16.6 16.6 17.9 17.4 15.3 13.2 12.1 11.5 11.4 11.1 11.4 11.7
4.6 4.8 4.7 4.8 4.8 5.4 5.8 5.5 5.7 5.9 5.7 5.8 5.9 6.0 6.0 6.2 6.4 6.6 7.0 7.1 6.6 6.7 6.8 7.6 8.7 9.2 10.2 14.0 18.0 22.1 23.7 20.8 18.9 19.1 19.4 16.9 14.2 13.0 12.9 12.9 12.2 11.9 11.2
4.4 4.5 4.7 4.7 4.9 5.4 5.6 5.5 5.5 5.7 5.8 5.8 5.8 6.0 6.4 6.3 6.3 6.2 6.3 6.4 6.5 6.1 6.2 7.1 8.0 9.1 10.5 13.6 16.5 18.5 20.5 21.7 22.7 22.2 21.0 20.0 16.5 13.9 13.5 13.0 12.0 11.3 11.4
4.4 4.6 5.0 4.9 5.1 5.3 5.5 5.6 5.6 5.5 5.7 5.9 6.0 6.0 6.0 5.9 5.9 5.7 5.7 5.9 6.0 5.7 5.7 6.3 7.5 9.3 11.1 13.5 15.6 17.2 17.9 18.6 18.6 18.9 18.8 17.8 15.4 13.0 13.0 13.0 11.7 11.3 11.1
4.9 5.2 5.3 5.3 5.4 5.6 5.6 5.8 5.6 5.7 5.8 5.8 5.9 6.0 6.0 6.1 5.8 5.7 5.7 5.9 6.0 5.8 5.7 5.6 6.2 8.3 10.7 13.2 14.8 16.7 16.9 15.3 13.3 12.7 15.0 16.7 14.9 12.7 12.2 13.1 12.0 11.8 11.5